Wind_Speed
50 50 51 52 53 53 54 54 55 55 56 57 57 57 58 58 58 59 60 61 61 61 62 62 62 63 63 63 62 62 62 62 62 63 63 63 63 63 63 63 63 63 62 61 60 58 57 55 54 53 53 53 52 52 52 54 54 55 56 57 57 58 58 59 60 59 59 59 58 58 58 58 58 59 59 59 60 61 61 62 62 63 64 64 64
51 52 53 54 54 55 55 55 56 56 57 58 58 59 60 60 60 60 60 61 62 62 62 62 62 62 62 62 62 62 62 62 63 64 64 64 63 63 63 63 63 62 62 61 59 58 57 56 54 53 53 52 52 52 53 54 55 56 57 58 59 60 62 62 63 64 63 62 62 62 61 60 60 60 60 61 62 62 63 63 64 65 65 65 65
55 55 56 57 57 58 58 58 59 59 59 60 61 61 62 63 63 63 62 63 63 63 63 63 63 62 62 62 62 62 63 63 64 64 64 64 63 63 63 63 63 62 62 61 60 59 58 57 56 54 54 54 53 53 55 56 58 59 59 61 61 62 64 66 67 67 66 66 66 65 64 64 63 63 63 64 64 64 65 65 65 66 66 66 66
58 58 58 59 60 61 61 62 62 62 63 63 64 65 65 65 65 65 64 64 63 63 62 62 62 62 62 62 62 63 63 63 63 62 62 62 62 62 62 62 62 62 61 61 60 60 59 58 57 56 56 56 55 56 58 59 61 62 63 64 65 66 67 69 70 71 71 71 71 70 69 69 68 67 67 67 67 67 67 67 67 67 67 67 67
59 59 60 61 61 62 63 63 64 65 66 66 66 67 66 66 66 65 65 64 63 63 62 62 62 61 62 62 62 62 62 61 61 60 61 61 62 62 62 61 61 61 60 59 59 59 58 58 57 57 58 58 59 61 62 64 66 67 68 69 70 71 72 73 74 75 76 76 76 76 75 74 72 71 70 69 68 68 68 68 68 68 68 68 69
60 61 61 62 63 64 64 65 66 66 67 67 67 66 66 65 65 64 63 63 63 62 62 62 62 62 62 62 61 61 60 60 60 61 62 62 62 62 62 61 61 60 59 59 58 58 58 58 59 60 62 63 65 67 69 71 72 73 74 75 76 77 77 78 79 80 80 81 81 80 79 78 76 73 71 70 69 69 69 69 69 69 70 70 71
62 62 63 63 64 65 65 65 66 66 66 66 66 65 64 64 63 63 62 62 62 63 63 63 63 62 61 60 59 59 59 60 61 62 62 63 63 63 62 62 62 61 60 60 60 60 61 63 65 67 69 70 72 73 75 76 77 78 79 80 80 81 82 82 82 82 83 83 83 82 81 80 78 75 73 71 70 69 69 70 71 71 72 72 73
64 64 64 64 64 64 64 64 64 64 63 63 62 62 62 62 62 62 62 63 63 62 62 61 60 59 59 58 58 59 60 61 62 63 64 64 65 64 64 64 64 63 63 63 64 65 67 69 70 72 74 75 77 78 79 80 81 81 82 83 83 84 84 84 84 83 83 83 82 82 81 80 78 76 74 72 72 71 71 71 71 71 72 72 72
64 64 63 63 63 62 62 61 61 61 60 60 60 61 61 61 62 62 62 62 61 60 60 59 58 57 57 58 59 60 62 63 64 65 66 66 66 66 66 66 66 66 66 67 68 70 71 73 74 76 77 78 80 81 82 83 83 84 84 85 85 85 84 84 83 82 82 81 81 80 80 78 76 75 74 73 72 71 70 70 69 69 69 69 68
64 63 63 62 62 61 61 61 61 61 61 61 61 61 61 61 61 61 61 60 59 59 58 58 58 58 59 60 61 62 63 64 65 66 67 67 68 68 68 68 69 70 70 71 72 74 75 76 77 79 80 81 82 83 84 84 85 85 85 85 84 84 83 82 82 81 80 80 79 78 77 75 74 73 72 72 71 70 69 68 67 66 66 66 66
65 64 64 64 64 64 64 63 63 62 62 61 61 61 61 60 60 60 60 59 59 59 59 59 60 60 61 62 62 64 65 67 68 69 70 71 71 72 72 72 73 74 75 76 76 77 78 79 81 82 83 84 84 85 85 85 85 85 84 83 82 81 81 80 79 79 78 77 75 74 73 73 72 72 72 71 69 67 65 64 63 64 65 66 66
66 66 66 66 66 65 65 65 64 63 62 62 61 61 61 61 61 61 61 61 61 61 61 62 62 63 63 64 65 67 69 71 72 73 75 76 77 77 77 77 78 78 79 79 80 80 81 82 82 83 84 84 85 85 84 84 83 83 82 81 80 79 79 78 77 76 75 73 71 70 71 72 72 71 70 66 63 62 62 63 65 66 67 66 65
64 64 64 64 64 63 63 63 63 62 62 62 63 63 63 63 63 63 62 62 62 62 63 64 64 66 67 68 69 70 72 74 76 77 78 79 80 81 81 81 81 81 81 81 82 82 82 83 83 82 83 83 83 83 82 81 81 80 79 78 77 77 76 75 75 73 72 71 69 68 69 70 69 67 65 64 63 64 66 67 68 68 67 66 66
61 61 61 62 61 62 62 62 62 63 63 64 64 65 65 65 65 65 64 65 65 66 66 67 69 70 72 73 73 74 76 78 79 80 81 81 82 82 82 83 83 83 83 83 83 83 82 82 82 81 81 81 80 80 79 79 78 77 77 76 75 74 74 73 72 72 71 70 69 69 69 69 68 67 67 66 66 67 67 68 68 68 67 66 67
62 62 63 63 63 63 63 64 64 65 65 65 65 66 66 67 67 67 67 68 69 70 71 72 74 75 76 77 78 78 80 81 82 83 84 84 85 85 85 86 85 85 85 84 84 83 82 82 81 81 80 80 80 79 79 78 78 77 76 75 74 73 72 71 70 69 69 70 70 70 69 69 68 68 68 67 66 67 68 69 68 67 64 62 63
67 66 66 66 66 66 66 66 66 67 67 67 67 68 69 69 70 71 71 72 74 75 76 78 79 80 81 82 82 82 83 84 85 86 87 87 88 88 89 89 88 88 87 86 85 84 83 83 83 82 81 80 80 79 79 79 78 78 77 76 75 73 71 70 69 68 68 69 70 70 68 68 67 67 66 67 69 70 70 68 66 63 61 61 62
70 69 69 68 68 69 69 69 69 70 70 71 71 72 73 74 75 76 76 77 78 79 80 81 82 83 83 84 85 85 85 85 86 87 87 88 88 89 89 89 89 89 88 87 87 86 86 85 85 84 83 82 81 80 80 80 80 79 78 77 75 73 70 67 66 67 68 69 70 70 68 67 66 65 66 69 70 70 68 65 62 61 62 64 65
72 71 71 71 72 72 72 73 73 74 75 76 76 77 78 79 80 81 81 81 82 83 83 84 84 85 85 85 86 86 86 86 87 87 88 88 89 89 89 89 89 88 87 87 87 87 86 86 85 85 84 83 82 81 81 81 80 79 78 76 74 71 68 64 64 66 68 69 70 69 67 65 64 65 67 68 67 65 64 62 62 62 63 62 60
74 74 74 75 76 77 77 78 79 79 80 80 81 82 82 83 84 85 86 86 86 86 87 87 87 88 88 88 89 89 89 89 89 90 90 90 91 90 90 90 89 89 88 88 87 87 86 86 85 85 84 83 82 81 81 80 79 77 76 74 72 70 66 63 64 66 67 68 69 66 63 62 63 65 68 67 64 62 62 61 60 59 57 55 53
76 77 78 79 80 82 83 83 84 84 85 85 85 86 87 88 88 89 89 90 90 90 91 91 91 91 92 92 92 92 92 91 91 91 91 91 91 91 91 91 90 90 90 89 89 87 86 85 84 84 83 82 81 80 79 78 77 75 74 72 71 69 65 63 63 66 68 69 68 65 63 64 64 66 66 64 61 60 59 57 55 53 51 50 50
80 81 82 83 84 85 86 87 87 88 89 89 89 89 90 91 91 92 93 93 93 94 94 95 95 95 95 96 95 95 95 95 94 93 93 93 93 93 92 92 92 91 90 89 88 87 86 85 84 83 82 81 80 79 78 77 75 73 71 69 68 67 65 64 65 67 68 69 69 68 67 67 66 65 63 60 58 57 55 52 49 49 48 48 50
84 84 85 86 87 88 88 89 89 90 90 91 91 91 92 93 93 94 95 95 96 96 97 97 98 98 97 97 97 97 97 97 97 96 96 95 95 95 94 93 93 92 91 89 88 87 85 84 82 81 81 80 79 78 77 75 73 70 66 65 66 67 67 67 67 67 68 69 70 69 69 69 67 64 62 60 56 53 50 48 48 48 48 50 52
86 86 87 88 88 89 89 89 90 90 91 91 92 92 92 93 93 94 95 96 97 98 98 98 99 98 98 98 97 97 97 97 97 97 97 96 96 95 95 94 93 92 91 89 87 85 84 82 81 79 79 78 77 76 74 73 71 68 64 62 63 65 66 67 67 66 66 67 68 69 70 68 65 63 61 59 53 49 48 48 48 48 50 52 52
87 87 88 88 88 89 89 89 90 90 91 91 92 92 93 93 94 95 96 97 98 98 98 99 99 99 98 97 96 96 97 97 96 96 96 96 95 95 94 93 92 91 89 87 85 83 82 80 78 77 75 74 73 72 70 69 67 65 62 61 61 63 64 65 65 65 66 67 68 68 66 63 61 60 59 54 50 48 48 48 48 50 51 50 46
87 87 87 88 88 89 89 90 90 91 92 93 93 94 94 95 95 96 96 97 98 98 98 98 98 98 98 97 96 96 96 96 96 95 95 95 94 93 91 90 89 88 87 85 83 81 80 77 75 72 70 68 67 66 65 64 62 61 59 59 61 63 64 64 64 64 64 65 65 63 62 61 61 58 54 48 46 47 47 47 48 48 46 42 39
87 87 88 88 89 90 90 91 91 91 92 93 94 95 96 96 97 97 97 98 98 98 98 98 98 98 98 97 96 96 95 95 94 94 93 92 91 90 89 88 87 87 85 83 81 79 76 73 70 68 65 64 62 60 58 58 59 60 60 61 63 64 64 63 62 59 59 59 60 59 59 58 55 51 47 46 46 45 45 44 43 41 38 36 36
88 88 89 89 90 90 91 91 92 92 92 93 94 94 95 96 97 98 98 98 99 99 99 98 98 98 98 97 96 95 94 93 92 92 91 90 90 89 88 87 87 86 84 81 78 75 72 69 67 64 62 60 57 54 52 54 56 57 58 59 60 60 58 56 54 53 54 55 54 52 50 47 45 45 45 45 44 41 39 38 36 35 34 34 35
88 88 89 89 90 90 91 91 92 92 93 93 94 94 95 96 97 97 98 99 100 100 99 99 98 98 98 97 96 94 92 91 91 91 90 90 89 89 88 87 85 83 80 77 74 71 68 66 64 61 59 55 51 48 48 49 50 50 49 50 51 50 49 49 50 52 52 50 47 45 44 43 44 44 43 41 38 36 35 33 33 33 33 34 36
87 87 88 89 90 90 91 92 92 93 93 94 94 95 96 97 98 98 98 100 101 101 100 99 98 98 97 96 95 94 91 90 90 91 90 90 89 88 86 84 82 79 76 73 70 67 65 62 60 58 55 50 46 45 45 45 45 44 43 44 44 44 46 48 49 49 46 44 43 43 43 43 43 41 39 37 35 33 32 31 32 33 34 36 38
86 87 88 89 90 91 92 92 93 94 95 96 96 96 97 97 99 99 99 99 100 100 99 98 97 97 96 95 94 94 92 91 91 91 90 89 87 85 82 80 77 74 72 69 66 64 61 59 57 54 50 46 43 43 43 42 42 41 41 42 43 45 46 47 46 44 43 42 42 42 42 41 39 38 36 34 32 30 30 31 33 34 36 37 38
88 89 90 91 92 93 94 94 95 96 97 98 99 99 98 98 98 98 98 98 98 98 98 97 96 96 96 95 94 94 93 92 91 89 87 85 82 80 77 75 72 70 68 66 63 60 58 56 53 49 46 45 44 43 42 42 41 40 38 39 42 44 44 43 43 43 42 41 40 39 39 38 36 35 33 31 30 30 31 33 34 35 36 38 39
92 92 93 94 95 96 97 97 98 99 99 99 100 100 100 99 97 96 96 96 97 96 96 97 97 97 97 96 95 93 92 91 88 86 83 79 77 74 72 70 68 66 65 63 59 56 54 52 49 46 46 46 46 45 43 42 41 39 36 35 37 39 40 41 42 42 40 39 38 38 37 36 34 32 31 30 31 31 32 33 35 36 37 39 40
95 96 97 98 98 99 99 100 100 100 100 100 100 100 99 99 98 95 94 94 95 96 97 97 97 97 96 95 94 91 89 86 83 80 77 74 71 69 67 65 63 62 61 59 56 53 51 49 46 45 46 47 47 46 44 43 41 40 37 34 35 37 40 41 41 40 39 38 38 37 35 33 31 30 29 30 31 32 33 34 36 37 39 40 41
98 98 99 100 100 100 100 100 100 100 100 100 100 99 99 99 99 98 96 94 94 95 96 96 95 94 92 91 89 86 83 80 77 74 72 69 66 64 62 60 59 58 57 55 53 50 48 46 45 44 45 46 47 46 45 44 42 39 37 36 37 39 41 42 42 41 40 38 36 33 32 30 29 29 30 30 31 32 34 35 37 38 40 41 42
98 98 99 100 100 100 100 100 100 100 100 99 99 99 99 99 99 99 98 97 95 93 92 92 91 89 87 84 83 81 78 75 72 69 67 64 62 60 58 56 55 54 53 51 50 47 45 43 43 43 44 45 45 45 45 43 40 37 36 37 39 41 43 44 43 41 38 35 32 30 30 29 29 29 30 30 32 33 35 37 38 40 41 42 44
96 97 97 98 99 99 99 99 99 99 99 99 98 98 98 98 97 96 96 94 93 91 89 87 85 83 81 78 77 75 73 70 68 65 63 60 58 57 55 53 51 50 49 47 46 44 41 40 39 40 41 42 43 43 42 40 38 37 37 38 40 43 44 43 40 37 33 31 29 29 29 29 29 29 30 32 33 35 36 38 39 41 42 43 45
95 95 96 96 97 97 97 97 98 98 98 97 97 96 95 94 93 92 91 90 88 87 84 82 80 78 75 72 71 70 68 66 64 62 60 57 55 53 51 49 47 46 44 42 41 38 36 35 34 35 37 38 40 40 40 39 37 36 37 38 40 40 39 36 33 31 29 29 28 28 28 28 29 31 32 34 35 36 38 39 40 41 43 44 46
93 93 94 94 95 95 95 95 94 94 94 93 93 92 91 90 89 88 87 85 83 81 79 77 75 73 70 67 67 66 64 62 60 59 57 54 52 49 46 44 43 41 39 37 35 33 31 31 32 34 36 37 38 38 36 35 34 35 36 36 35 33 31 30 29 28 27 27 27 27 28 29 31 32 34 35 37 38 39 40 41 42 44 45 47
89 90 90 91 91 92 92 91 91 91 90 90 89 89 88 87 86 84 83 81 79 77 74 72 70 68 65 64 63 62 60 58 56 55 53 50 47 44 42 40 38 35 33 31 30 29 30 32 34 35 35 34 33 31 30 30 31 31 31 30 28 28 27 27 26 26 26 26 27 28 29 31 33 34 36 37 37 38 39 40 42 43 45 46 48
85 86 87 88 88 89 89 89 89 89 88 88 87 87 86 85 83 81 79 77 75 73 70 68 66 64 62 60 59 59 56 54 52 50 47 44 41 39 37 35 32 30 28 27 28 30 33 35 35 34 32 30 28 27 26 27 27 26 26 26 25 25 25 25 25 26 27 27 29 30 32 33 35 36 37 37 38 39 40 41 42 44 46 47 49
84 85 85 86 87 88 88 88 88 88 87 87 86 85 84 82 80 78 76 73 71 69 66 64 62 60 58 57 56 54 52 49 47 44 40 37 35 34 32 29 27 25 26 28 30 33 35 35 33 31 28 26 25 24 24 24 23 23 24 24 24 24 25 25 26 27 28 29 30 32 33 34 35 36 37 37 38 39 41 42 43 45 47 48 50
83 84 85 85 86 87 87 88 88 87 87 86 85 84 82 79 77 75 72 70 67 65 62 60 58 56 54 53 51 50 47 44 40 36 34 32 31 29 27 25 24 25 28 31 34 34 34 32 29 27 26 25 25 24 23 22 23 23 23 24 24 25 25 26 27 28 29 31 32 33 34 35 36 36 37 38 39 40 42 43 44 46 48 49 51
83 83 84 85 85 86 86 86 86 85 84 83 82 80 78 75 73 71 69 66 64 61 59 56 54 52 50 48 47 46 42 37 33 31 30 29 26 24 23 23 25 29 32 33 33 31 29 28 27 27 27 28 27 26 24 24 24 24 24 25 25 25 26 27 28 29 31 32 33 34 35 35 36 37 38 39 40 41 43 44 45 47 48 50 52
83 84 84 84 84 84 84 83 82 81 80 78 76 74 72 70 68 67 65 62 60 57 55 53 50 48 47 45 43 41 37 32 30 31 30 26 23 23 24 26 29 31 31 30 28 27 25 25 26 27 28 29 29 27 26 25 25 25 25 26 25 26 26 28 29 31 32 33 34 35 35 36 37 38 39 40 41 43 44 45 46 48 49 52 54
84 84 84 83 82 81 80 79 77 76 74 72 69 67 65 64 63 62 60 58 56 54 52 50 47 45 44 42 39 34 30 28 30 31 29 25 24 25 28 29 30 30 28 25 23 23 23 24 25 27 29 30 30 28 26 26 25 25 25 25 26 27 28 30 31 32 33 34 34 35 36 37 38 39 40 41 42 44 45 46 47 49 52 55 57
84 83 82 80 79 77 75 73 71 69 67 65 63 61 59 59 58 57 55 54 53 51 49 46 44 41 40 37 33 28 26 27 29 29 27 25 26 28 29 29 28 26 24 22 21 21 22 24 26 27 28 29 29 28 27 27 27 26 26 26 27 28 30 31 33 33 34 35 35 36 37 38 39 40 41 42 43 45 46 47 50 52 54 57 59
84 81 78 75 72 70 69 67 65 63 60 59 57 56 55 54 54 53 51 50 49 48 45 43 40 37 35 32 28 26 26 28 27 25 24 25 27 27 27 26 25 23 21 20 21 22 23 24 25 27 28 29 29 29 29 28 28 28 27 28 28 30 31 33 34 35 35 36 37 37 38 39 40 41 42 44 45 46 48 49 52 54 57 59 62
81 76 71 67 65 64 63 62 60 58 56 54 53 52 51 51 50 49 48 47 46 44 41 38 35 33 31 29 27 26 28 29 27 24 24 26 27 26 24 23 23 22 21 20 21 22 23 24 25 26 27 28 28 29 29 29 29 29 29 30 31 32 33 34 36 36 37 37 38 38 39 40 41 42 44 45 46 48 49 52 54 57 59 61 64
74 68 64 62 61 60 59 57 56 54 53 51 50 49 48 47 47 46 44 43 42 39 37 34 31 29 28 28 27 28 29 28 26 25 26 27 26 24 23 22 22 21 20 20 21 22 23 24 25 26 26 27 27 28 28 28 29 30 31 32 33 34 35 36 37 37 37 38 38 39 40 41 42 43 45 46 47 49 51 54 56 59 61 63 64
66 62 61 59 58 56 55 53 52 51 49 47 46 45 44 43 42 41 40 39 37 35 33 30 28 26 26 26 28 29 29 28 26 26 27 27 26 24 23 23 22 21 21 21 21 22 23 24 25 26 26 27 27 28 28 29 31 32 33 34 35 36 36 37 37 37 38 38 39 40 41 42 43 45 46 48 50 52 54 56 59 61 63 63 63
61 60 59 57 55 53 52 50 48 46 45 43 42 41 39 38 37 37 36 35 33 31 29 28 26 25 24 25 26 27 27 27 27 27 27 28 27 26 25 25 24 23 23 22 23 24 25 25 26 26 27 27 28 29 30 31 33 34 34 35 36 36 37 37 37 38 38 39 41 42 43 44 45 46 48 50 52 54 56 59 61 62 62 62 60
Wind_Direction
277 278 279 279 280 281 281 282 282 283 284 284 285 286 287 288 289 289 290 290 291 291 291 291 291 291 292 292 291 292 292 292 292 292 293 293 293 293 294 295 296 296 297 297 297 296 296 296 296 296 296 297 299 301 303 304 304 305 304 303 302 300 298 297 297 298 297 296 295 294 294 294 294 294 295 296 296 295 295 295 294 293 293 292 292
281 281 281 282 282 282 283 283 284 285 286 287 288 288 289 290 289 289 289 289 290 290 290 290 291 291 291 292 292 292 292 292 292 293 293 294 294 294 295 295 296 296 297 297 297 296 296 296 296 295 295 296 298 300 301 301 302 303 303 302 302 301 299 298 298 298 298 296 295 294 294 293 293 293 294 295 295 295 295 294 293 292 291 291 291
283 283 283 284 284 284 285 286 286 287 287 288 288 288 288 289 288 288 288 289 289 290 290 290 291 291 292 292 292 292 292 292 292 292 293 293 294 294 295 295 296 296 296 296 296 295 295 295 295 294 294 295 297 298 298 299 299 300 301 301 300 300 299 298 298 298 297 296 295 294 293 293 292 293 293 294 294 294 294 293 292 291 291 291 291
282 282 283 283 284 285 285 286 286 287 287 287 287 288 288 288 288 289 289 289 290 290 290 290 290 291 291 291 291 291 291 291 291 291 292 292 293 294 294 295 295 295 295 295 294 294 294 294 295 294 294 295 296 297 296 297 297 298 299 299 298 298 297 296 296 296 296 295 294 294 293 292 292 292 292 292 292 293 293 292 291 291 290 291 291
281 282 282 283 283 284 284 284 285 286 286 287 287 288 289 289 289 289 289 289 289 289 289 289 289 290 290 290 290 290 290 290 291 292 292 293 293 294 294 294 294 294 294 294 294 294 294 295 295 295 295 295 296 296 296 296 296 297 297 297 296 296 295 295 295 295 294 294 294 293 293 292 292 291 291 291 291 291 291 290 290 290 290 290 290
281 281 282 282 283 283 284 284 285 285 286 287 287 288 288 289 289 289 288 288 288 289 289 289 289 290 290 290 290 290 291 292 292 293 293 293 293 294 294 294 294 294 294 294 294 294 295 296 296 296 296 296 296 296 296 296 296 296 296 296 295 294 294 294 294 293 293 293 292 292 292 292 291 291 291 291 291 291 290 290 290 289 289 290 290
281 282 282 283 283 284 285 285 286 286 287 287 287 288 288 288 288 288 288 288 288 289 289 289 289 289 289 289 289 290 291 291 292 292 292 292 293 293 293 294 294 294 294 294 294 294 295 295 296 296 296 296 296 296 296 296 295 296 295 295 294 294 293 293 292 292 292 291 291 291 291 291 291 291 291 290 290 290 290 290 290 290 291 292 293
285 285 285 285 285 285 285 286 286 286 286 286 286 287 287 287 287 287 288 288 288 288 288 288 288 288 288 288 288 289 289 290 290 290 290 291 291 292 292 292 293 293 293 293 293 293 294 294 294 295 295 295 295 295 295 295 295 295 294 294 293 292 292 292 291 291 291 290 290 290 290 290 290 290 290 291 291 291 291 291 292 292 293 293 293
289 288 288 288 287 287 286 286 286 286 286 286 286 286 286 286 286 286 286 287 287 287 287 287 287 287 287 287 287 288 289 289 289 290 290 290 290 291 291 291 292 292 292 292 292 292 292 293 293 293 293 293 293 293 293 293 293 293 293 292 291 291 291 291 291 290 290 290 289 289 289 290 290 291 291 291 291 290 290 291 291 291 291 290 289
289 289 289 288 288 288 287 287 287 287 287 286 286 286 286 286 286 286 286 286 286 286 286 287 286 286 286 286 286 287 288 289 289 290 290 290 290 290 291 291 291 291 291 291 291 291 291 291 291 291 291 291 291 291 291 291 291 291 291 291 291 291 290 290 290 289 289 289 289 289 290 291 291 290 290 290 289 289 289 289 289 287 287 288 290
288 288 288 288 288 288 288 288 288 287 287 287 286 286 286 286 286 286 286 286 286 287 287 287 287 287 287 287 287 288 289 290 290 290 290 290 290 290 290 290 290 290 290 290 290 290 290 290 290 290 290 290 290 290 290 290 290 290 290 290 290 290 289 289 289 288 288 288 289 289 290 289 288 287 288 288 288 287 287 287 287 288 289 292 294
287 287 287 287 287 287 288 288 288 288 288 288 288 288 288 288 288 288 288 288 288 288 288 288 289 289 289 289 289 290 290 290 290 290 290 289 289 289 289 290 290 290 290 290 290 290 290 290 289 289 289 289 289 289 289 289 288 289 289 289 289 289 288 288 287 287 287 287 287 287 286 286 286 286 286 286 285 284 284 286 288 291 293 294 293
287 287 287 287 287 287 287 288 288 288 289 289 289 290 290 290 290 290 289 289 288 288 288 288 288 288 288 288 288 288 288 288 288 288 288 288 289 289 290 290 290 291 291 290 290 290 290 290 289 289 289 288 288 288 288 288 288 288 288 288 288 287 287 287 286 286 286 286 285 285 284 284 284 283 283 282 283 284 286 289 291 292 293 293 291
287 288 288 288 288 288 288 288 288 288 289 289 289 290 290 290 289 289 289 289 288 288 288 289 289 289 289 289 289 289 289 289 289 289 289 289 289 290 291 291 292 292 292 292 292 291 291 291 290 290 290 289 289 289 288 288 288 288 288 288 287 287 286 286 285 285 285 285 284 283 282 281 281 281 282 283 285 287 289 291 291 292 292 292 290
288 288 288 287 287 287 287 287 287 287 288 288 288 288 289 289 289 289 289 289 290 290 290 290 290 290 290 291 291 292 292 292 292 292 292 293 293 293 294 294 294 294 294 294 293 293 292 292 291 291 290 290 289 289 289 288 288 288 288 287 286 286 286 285 285 285 283 283 282 281 279 279 281 283 284 286 288 289 290 291 292 292 291 289 288
287 287 286 286 286 285 285 286 286 286 287 287 288 288 289 289 290 290 290 291 291 292 292 292 292 293 293 293 294 294 294 294 294 295 295 295 295 296 296 296 296 296 296 295 294 294 293 293 292 292 291 291 290 289 288 288 288 287 287 286 286 286 285 285 285 283 281 280 280 279 279 280 282 283 285 287 289 290 291 291 291 290 289 287 287
287 287 287 286 286 286 286 287 287 288 288 289 289 290 290 291 291 292 292 292 292 293 293 293 293 294 294 294 294 295 295 294 294 294 295 294 295 295 295 295 296 296 296 295 295 295 295 294 294 293 292 292 291 289 289 288 287 287 286 286 286 285 285 285 284 282 281 280 280 279 280 281 281 283 286 288 290 291 290 289 289 288 287 287 287
287 288 288 288 288 289 289 289 289 289 290 290 291 292 292 292 293 293 293 293 293 293 293 293 293 293 293 293 293 293 293 293 292 293 293 293 293 293 293 294 294 294 294 294 294 294 294 294 293 293 292 292 291 290 289 289 288 288 287 286 285 284 284 283 280 279 281 281 280 280 280 280 282 285 288 291 290 288 285 285 286 286 286 285 285
287 288 289 289 290 290 290 290 291 291 291 292 292 292 293 293 293 293 293 293 294 294 294 294 294 293 293 293 293 293 293 292 292 292 293 293 293 293 293 294 294 294 294 294 294 294 294 293 293 292 292 291 291 290 290 289 289 288 286 286 285 284 283 280 277 277 278 279 280 281 281 281 284 288 291 290 285 280 280 282 284 284 285 286 287
288 289 289 290 290 291 291 291 292 292 292 292 293 293 293 293 293 294 294 294 294 294 294 294 294 294 294 293 293 293 293 293 293 293 293 293 293 294 294 294 294 294 294 294 294 294 294 293 293 292 292 291 290 289 288 288 287 286 286 285 284 283 282 280 278 277 277 278 279 281 282 284 286 290 290 284 278 277 279 282 283 285 287 289 289
289 289 290 290 291 291 292 292 292 292 292 293 293 293 293 293 294 294 294 294 294 294 294 294 294 294 295 295 295 295 295 295 295 295 295 295 295 295 295 295 295 295 295 295 295 295 294 293 293 292 292 291 290 289 287 286 285 284 284 283 282 280 279 277 276 276 277 278 279 281 283 285 286 288 286 279 276 280 282 284 286 289 289 289 288
289 289 290 290 290 290 291 291 291 291 292 292 292 292 292 292 293 293 293 293 293 293 293 294 294 294 295 295 295 296 296 296 296 296 297 297 297 297 297 297 296 296 296 296 296 295 295 294 293 292 291 290 289 288 286 285 283 281 280 279 278 278 277 275 274 275 277 279 280 281 283 284 286 286 282 278 279 282 283 285 288 288 287 287 287
288 288 289 289 289 289 289 289 290 290 290 290 290 291 291 291 291 292 292 292 293 293 293 293 293 294 294 294 295 295 296 296 297 297 297 297 297 297 297 297 297 297 297 297 296 296 295 295 294 293 291 290 289 287 286 283 281 278 276 275 275 276 277 277 276 276 276 277 279 280 282 283 284 282 279 277 279 280 281 284 285 284 284 285 284
287 287 287 287 287 287 287 288 288 288 288 289 289 289 290 290 290 291 291 292 292 292 293 293 293 293 294 294 294 295 296 296 297 297 297 297 297 297 297 297 297 297 297 297 297 296 296 295 294 293 292 290 289 286 284 282 279 276 274 274 274 275 275 276 276 276 276 276 278 280 282 283 282 277 272 272 274 277 280 282 282 282 282 281 278
285 285 285 285 286 286 286 286 287 287 288 288 289 289 290 290 290 291 291 292 292 292 292 293 293 294 294 294 295 295 296 296 296 296 296 296 296 296 296 296 296 297 297 297 297 296 296 295 294 293 292 290 288 285 283 281 278 274 272 272 272 272 273 274 275 275 275 276 278 280 281 280 275 269 266 269 274 277 279 279 279 279 277 276 276
284 284 284 285 285 285 285 286 286 287 288 288 289 290 290 290 291 291 291 292 292 293 293 293 294 294 294 295 295 295 295 295 295 295 295 295 296 296 296 296 297 297 297 297 296 296 295 295 294 293 291 289 287 284 281 280 277 274 271 269 270 271 273 274 274 275 275 276 278 278 275 272 269 266 267 272 274 274 274 274 274 274 274 276 280
283 283 284 284 284 285 285 286 286 287 288 288 289 290 291 291 291 292 292 292 293 293 294 294 295 295 295 295 295 295 295 295 294 294 295 295 295 296 296 296 296 296 296 296 295 295 294 294 293 292 290 288 285 283 280 278 277 276 274 273 272 273 274 273 274 275 275 275 274 271 268 267 267 268 269 270 270 269 270 271 272 273 276 279 282
282 283 283 284 284 285 285 286 286 287 287 288 289 290 291 291 292 293 293 293 293 293 294 294 294 294 294 294 294 294 294 294 294 294 294 295 295 295 295 295 295 295 295 294 294 294 293 292 292 290 288 286 284 282 280 278 277 277 276 275 274 273 273 273 275 274 272 269 268 267 266 266 267 268 267 267 267 267 269 270 273 276 279 282 284
282 283 283 284 284 285 285 286 287 287 288 288 289 290 290 291 292 292 293 293 293 293 293 294 294 293 293 293 293 293 293 293 293 294 294 294 294 294 294 294 294 293 293 293 293 292 292 291 290 288 286 284 282 280 279 277 276 276 275 275 274 274 275 275 274 271 267 265 266 267 267 267 267 266 265 265 265 267 269 273 276 279 281 283 285
283 283 284 284 285 285 286 287 287 288 288 288 289 289 290 290 291 292 292 292 292 293 293 293 293 293 293 293 293 293 293 293 293 293 293 293 293 293 293 292 292 292 292 291 291 291 290 289 287 285 283 281 278 276 275 274 274 274 274 275 275 275 276 275 272 267 265 266 267 267 266 265 264 264 264 264 266 269 273 276 278 280 282 284 285
284 285 285 285 286 286 287 287 288 288 289 289 289 289 289 289 290 291 292 292 292 292 293 293 293 293 293 293 293 293 293 293 293 293 293 293 292 292 291 291 291 291 290 290 290 289 287 286 284 282 280 277 274 272 270 270 270 271 274 279 278 276 275 274 270 267 266 266 265 264 263 262 262 262 263 265 268 272 275 278 280 282 284 285 286
285 285 286 286 286 287 287 287 288 288 288 289 289 289 290 289 289 290 291 291 292 292 292 292 293 293 293 293 293 293 293 293 293 293 293 292 291 291 290 290 290 289 289 289 289 287 285 282 280 277 275 273 270 268 267 268 269 270 275 281 282 280 278 276 271 267 265 263 261 260 259 259 259 261 263 266 270 274 277 279 281 283 285 287 288
286 286 286 286 287 287 287 288 288 288 289 289 289 290 290 290 290 290 289 290 291 291 292 292 292 292 292 293 293 293 293 293 293 293 292 292 291 290 289 289 288 288 288 287 287 285 282 278 274 270 269 269 267 265 265 268 271 272 275 280 284 284 281 275 269 264 261 258 257 256 256 257 259 261 265 269 273 276 278 281 283 285 286 288 288
286 286 287 287 287 287 288 288 288 288 289 289 290 290 290 290 290 290 290 289 289 290 291 291 292 292 292 293 293 293 293 293 293 292 292 291 290 289 288 288 287 287 286 286 285 283 279 274 269 266 267 268 267 267 268 270 272 275 278 280 281 279 276 270 265 261 259 257 256 256 256 258 261 265 269 272 275 278 280 282 284 286 287 288 288
287 287 287 287 288 288 288 288 289 289 289 289 289 290 290 290 290 290 290 290 290 289 290 290 291 292 292 292 293 293 293 293 292 291 291 290 289 288 288 287 286 286 285 284 283 281 277 273 269 267 268 269 270 270 271 273 273 274 275 275 275 274 271 267 263 259 256 255 255 256 259 262 265 269 272 275 277 280 282 284 285 286 287 288 288
287 287 288 288 288 288 289 289 289 289 289 289 289 289 290 290 290 290 290 290 290 290 290 291 291 292 292 292 292 291 292 292 291 290 290 289 288 287 287 286 285 284 283 282 281 280 277 273 271 270 270 270 271 270 270 270 270 270 270 271 271 270 267 262 258 254 253 254 256 259 262 266 269 272 275 278 279 281 283 284 286 287 287 288 288
287 287 287 288 288 288 288 289 289 289 289 289 290 290 290 290 290 291 291 291 291 292 292 292 291 292 292 291 290 290 290 290 289 289 289 288 287 287 286 285 283 282 280 279 278 277 274 272 272 273 273 272 271 269 267 265 266 267 269 269 267 263 258 254 252 252 254 257 260 263 266 269 273 276 277 279 280 281 283 285 286 287 287 288 289
287 287 287 287 288 288 288 289 289 289 290 290 290 290 291 291 291 291 291 292 292 292 292 292 292 291 291 290 289 289 289 289 288 288 288 288 287 286 284 282 280 279 277 276 275 273 273 273 274 275 275 273 270 267 265 265 265 266 265 262 257 253 251 251 253 255 258 261 265 268 272 274 276 277 278 279 280 282 284 285 286 287 288 290 291
287 288 288 288 289 289 289 289 290 290 290 290 290 290 291 291 291 291 291 291 292 292 292 291 291 290 290 288 287 287 288 288 288 287 287 286 285 283 281 280 278 275 274 273 273 273 274 275 275 274 272 270 267 265 265 264 263 260 256 252 250 250 251 253 256 258 262 266 270 273 275 277 277 278 279 280 281 283 284 286 287 289 290 292 294
289 289 289 290 290 290 290 290 290 290 290 290 290 290 290 290 290 290 291 291 291 291 291 290 290 289 288 287 286 286 287 287 287 286 285 284 281 279 278 275 272 270 270 272 274 276 276 276 275 272 267 265 264 263 260 256 253 250 250 250 252 254 255 257 260 263 267 270 273 276 277 278 279 279 280 281 282 284 285 287 289 291 292 294 296
291 291 291 291 291 291 290 290 290 290 289 289 289 289 289 290 290 290 291 291 290 290 289 289 288 287 286 285 285 285 286 286 285 284 283 280 277 275 271 267 265 269 274 277 278 278 277 275 272 268 264 262 259 254 250 248 249 250 252 254 256 258 260 262 265 268 270 273 276 278 279 279 280 280 281 282 284 286 288 289 291 293 295 297 298
292 292 291 291 291 290 290 289 289 289 288 288 288 289 289 289 290 290 290 290 289 288 287 287 286 285 285 284 284 284 284 283 282 282 281 277 273 268 264 264 270 277 281 282 282 279 276 272 268 264 261 257 250 245 245 250 253 254 255 257 259 261 264 266 269 272 274 277 278 280 281 281 281 282 283 284 286 288 290 292 294 296 297 298 299
294 293 292 292 291 291 290 289 289 289 288 288 288 288 288 289 288 288 288 288 287 287 286 286 285 284 283 282 282 282 281 277 275 275 275 271 267 266 269 275 281 284 283 282 281 277 272 269 267 264 260 253 246 243 247 251 254 256 259 261 263 266 269 272 274 277 279 281 282 283 283 283 283 284 285 287 289 291 293 295 296 297 298 299 301
298 297 296 295 294 293 292 291 291 290 290 289 288 288 287 287 286 286 286 286 286 285 285 284 284 283 282 280 279 279 275 268 264 266 267 265 267 274 279 282 284 283 280 277 275 272 271 270 270 268 263 256 250 247 248 250 254 258 262 265 269 272 276 279 281 282 283 284 284 285 285 285 285 286 288 290 292 293 294 296 297 298 299 301 303
303 301 300 298 297 295 294 293 293 292 291 289 288 287 285 284 284 284 284 284 284 284 283 283 282 281 280 278 275 273 270 264 261 261 262 263 269 276 280 281 281 278 274 271 271 272 273 274 272 269 265 260 256 253 253 254 256 261 265 269 273 276 279 282 283 284 284 285 285 286 286 287 288 290 291 293 294 295 296 297 298 300 302 303 305
305 303 301 299 298 296 295 294 293 292 291 289 287 286 284 283 283 283 283 283 283 283 283 282 281 279 277 274 268 264 264 263 259 256 258 263 270 275 277 277 275 271 268 269 272 274 274 274 272 269 265 261 258 258 259 260 262 266 269 272 275 278 281 283 285 285 285 286 287 287 288 290 291 292 294 295 296 297 298 299 300 301 303 304 305
306 304 301 299 297 296 296 295 294 293 291 289 287 285 284 282 282 282 282 282 282 283 282 281 279 276 272 265 258 256 259 258 254 253 258 264 269 273 274 273 270 268 268 271 273 274 274 273 272 269 266 264 262 263 265 267 269 271 274 277 280 282 284 286 286 287 287 288 289 290 291 292 293 294 295 296 296 297 298 299 301 302 304 305 307
306 303 301 299 298 297 296 295 294 293 291 289 287 285 283 282 282 281 281 282 282 282 281 279 275 270 262 252 247 250 255 255 253 255 259 264 267 270 272 271 269 268 268 271 273 275 275 274 272 271 269 268 268 269 270 271 273 276 280 283 285 287 287 288 288 288 289 289 290 292 292 293 294 294 295 295 296 297 299 300 302 303 305 306 308
305 302 300 299 299 298 296 295 293 292 291 289 287 286 284 283 282 282 281 281 281 280 278 275 269 260 251 246 246 251 254 255 254 256 259 263 266 269 272 272 271 269 269 271 273 275 275 274 273 273 272 271 272 272 273 275 277 280 283 285 286 287 287 287 287 288 289 290 291 292 292 292 293 293 294 295 297 298 300 301 303 305 306 307 308
304 302 301 300 299 298 296 295 293 292 291 289 288 286 285 283 282 281 281 280 278 276 274 268 258 247 244 247 249 251 252 253 255 257 260 263 265 267 271 274 274 271 270 271 271 271 272 272 272 273 273 274 274 275 276 278 281 283 284 285 285 285 285 286 286 288 289 290 291 291 291 292 293 294 295 297 298 300 301 303 304 306 306 307 307
304 303 302 301 299 297 296 295 293 292 291 290 288 287 285 284 282 281 279 277 275 273 269 260 246 239 243 248 248 247 249 252 255 258 261 262 264 267 271 275 275 272 271 270 269 268 269 270 271 273 274 275 275 277 278 280 282 283 284 284 284 284 285 286 288 289 290 290 290 290 291 292 294 295 297 298 299 301 303 304 305 306 306 306 306
Height
5809 5809 5808 5807 5806 5805 5804 5803 5801 5800 5799 5797 5796 5795 5793 5792 5790 5788 5785 5783 5781 5780 5777 5775 5774 5772 5770 5768 5766 5763 5761 5758 5756 5753 5752 5750 5748 5745 5742 5739 5738 5736 5733 5731 5728 5725 5723 5721 5720 5717 5713 5711 5709 5706 5704 5700 5698 5696 5693 5691 5688 5685 5681 5678 5678 5681 5681 5677 5675 5673 5670 5666 5663 5660 5657 5654 5651 5648 5645 5642 5639 5636 5634 5631 5628
5803 5802 5802 5801 5800 5799 5797 5796 5795 5793 5792 5790 5789 5787 5786 5785 5783 5781 5779 5776 5774 5773 5771 5769 5767 5765 5763 5760 5758 5756 5753 5751 5748 5745 5743 5742 5739 5737 5734 5732 5730 5729 5726 5724 5721 5718 5716 5715 5713 5710 5707 5704 5703 5700 5698 5695 5692 5690 5688 5684 5683 5679 5675 5672 5670 5671 5672 5669 5666 5664 5662 5659 5656 5653 5649 5646 5643 5640 5637 5635 5631 5628 5625 5623 5620
5796 5795 5795 5794 5793 5791 5790 5789 5788 5786 5785 5783 5782 5780 5779 5777 5776 5774 5772 5770 5767 5765 5763 5761 5759 5757 5755 5753 5750 5748 5746 5743 5740 5738 5736 5733 5731 5729 5727 5725 5723 5722 5720 5718 5715 5712 5710 5708 5706 5704 5700 5698 5697 5694 5691 5689 5686 5684 5682 5679 5676 5673 5669 5666 5663 5662 5662 5661 5658 5656 5654 5651 5648 5645 5641 5638 5635 5632 5629 5627 5623 5620 5617 5615 5612
5790 5789 5788 5787 5786 5785 5783 5782 5780 5779 5777 5776 5774 5772 5771 5769 5767 5766 5764 5762 5759 5757 5755 5754 5752 5750 5747 5745 5743 5741 5738 5736 5733 5731 5728 5726 5724 5722 5720 5718 5716 5714 5712 5711 5708 5705 5703 5702 5700 5697 5694 5692 5690 5688 5685 5682 5679 5677 5675 5672 5669 5667 5663 5659 5656 5654 5652 5651 5650 5648 5645 5642 5640 5637 5633 5629 5626 5624 5621 5618 5615 5612 5609 5606 5604
5784 5783 5781 5780 5779 5778 5777 5775 5773 5772 5770 5768 5766 5764 5763 5761 5759 5757 5756 5754 5752 5749 5747 5746 5744 5742 5740 5737 5735 5733 5730 5728 5726 5723 5720 5718 5716 5715 5713 5711 5709 5707 5705 5703 5701 5699 5696 5695 5692 5690 5687 5685 5683 5681 5678 5675 5672 5670 5668 5665 5662 5659 5656 5652 5649 5645 5643 5641 5640 5638 5636 5633 5630 5628 5624 5621 5618 5615 5612 5610 5607 5603 5601 5598 5595
5777 5776 5775 5774 5772 5771 5769 5768 5766 5764 5762 5760 5758 5756 5755 5753 5751 5749 5748 5746 5744 5742 5740 5738 5736 5734 5732 5729 5727 5725 5722 5720 5718 5715 5713 5710 5708 5707 5705 5704 5702 5700 5699 5697 5694 5692 5689 5687 5685 5682 5680 5678 5676 5673 5670 5667 5664 5662 5659 5657 5653 5650 5647 5644 5640 5637 5634 5631 5629 5628 5626 5623 5620 5618 5615 5612 5609 5606 5604 5601 5598 5595 5592 5589 5586
5770 5769 5768 5767 5765 5763 5761 5760 5758 5756 5754 5752 5751 5749 5747 5745 5743 5741 5740 5738 5736 5734 5732 5730 5728 5726 5724 5722 5719 5717 5715 5713 5710 5707 5705 5703 5701 5700 5698 5697 5695 5693 5691 5689 5687 5685 5682 5680 5677 5674 5672 5669 5667 5664 5661 5659 5656 5653 5650 5647 5643 5640 5637 5634 5631 5627 5624 5621 5619 5617 5615 5613 5610 5608 5606 5603 5600 5598 5595 5591 5588 5585 5582 5579 5576
5761 5760 5759 5758 5756 5755 5753 5752 5750 5748 5747 5745 5743 5742 5740 5738 5736 5734 5732 5731 5729 5727 5725 5723 5721 5718 5717 5715 5713 5710 5708 5706 5703 5700 5699 5696 5694 5693 5691 5689 5688 5686 5684 5682 5679 5677 5674 5672 5669 5666 5663 5660 5658 5655 5652 5649 5646 5644 5641 5637 5633 5630 5627 5624 5620 5617 5614 5611 5609 5607 5604 5602 5600 5598 5596 5594 5591 5588 5585 5582 5578 5575 5572 5569 5566
5751 5750 5749 5748 5747 5746 5745 5743 5742 5740 5739 5737 5736 5734 5732 5730 5728 5727 5725 5723 5721 5719 5717 5715 5714 5712 5710 5708 5706 5703 5701 5698 5695 5693 5691 5689 5687 5685 5684 5682 5680 5678 5676 5674 5672 5669 5666 5663 5660 5658 5654 5651 5649 5645 5642 5639 5635 5633 5631 5627 5623 5620 5617 5614 5610 5607 5604 5601 5599 5596 5594 5593 5591 5589 5586 5584 5581 5578 5575 5573 5570 5566 5564 5561 5559
5742 5741 5740 5739 5738 5737 5736 5734 5733 5732 5730 5729 5727 5726 5724 5722 5720 5719 5717 5715 5713 5711 5710 5708 5706 5705 5703 5701 5698 5696 5693 5690 5687 5685 5682 5680 5679 5677 5676 5674 5672 5670 5668 5666 5663 5660 5657 5654 5652 5648 5645 5642 5639 5635 5632 5629 5625 5622 5620 5617 5613 5610 5606 5603 5601 5597 5594 5591 5589 5586 5584 5583 5582 5579 5576 5574 5572 5569 5567 5564 5561 5558 5555 5553 5550
5733 5733 5732 5730 5729 5728 5727 5725 5724 5722 5721 5720 5718 5717 5715 5714 5712 5710 5709 5707 5705 5703 5701 5700 5698 5696 5695 5693 5691 5688 5685 5681 5679 5676 5674 5671 5669 5668 5667 5666 5663 5661 5659 5656 5654 5651 5648 5645 5642 5638 5635 5631 5628 5624 5621 5618 5614 5611 5609 5606 5603 5600 5597 5593 5590 5587 5584 5581 5579 5577 5575 5574 5572 5569 5567 5564 5562 5559 5557 5554 5551 5548 5546 5543 5540
5725 5724 5723 5722 5721 5719 5718 5716 5714 5713 5712 5710 5709 5707 5706 5704 5703 5701 5700 5699 5697 5695 5693 5691 5689 5687 5685 5684 5682 5680 5676 5673 5670 5667 5665 5662 5659 5658 5657 5656 5654 5651 5649 5646 5643 5640 5637 5634 5631 5628 5624 5620 5617 5613 5610 5607 5603 5600 5598 5595 5593 5590 5587 5583 5580 5577 5575 5572 5570 5569 5566 5563 5561 5559 5557 5555 5552 5549 5546 5544 5541 5538 5536 5533 5531
5717 5716 5714 5713 5712 5711 5709 5708 5706 5704 5703 5701 5700 5698 5696 5695 5693 5692 5691 5690 5688 5687 5685 5683 5681 5679 5677 5675 5674 5672 5668 5665 5661 5658 5656 5653 5649 5647 5646 5644 5643 5640 5637 5634 5631 5628 5625 5622 5619 5616 5613 5609 5605 5601 5599 5596 5593 5589 5587 5585 5582 5580 5576 5573 5570 5567 5564 5562 5560 5559 5556 5553 5551 5549 5547 5545 5542 5539 5536 5534 5531 5529 5526 5524 5521
5709 5707 5706 5704 5703 5702 5701 5700 5698 5696 5695 5693 5691 5690 5688 5687 5685 5683 5683 5681 5679 5678 5676 5674 5672 5669 5667 5666 5664 5662 5658 5655 5651 5648 5645 5643 5639 5636 5635 5633 5630 5628 5625 5621 5618 5615 5612 5608 5606 5604 5600 5596 5593 5589 5586 5584 5581 5579 5576 5574 5572 5569 5566 5564 5561 5557 5554 5552 5550 5549 5546 5543 5541 5539 5537 5535 5532 5529 5527 5524 5521 5520 5518 5515 5512
5701 5700 5698 5696 5695 5694 5693 5692 5690 5688 5687 5685 5684 5682 5680 5678 5676 5675 5674 5672 5670 5668 5666 5664 5662 5660 5657 5654 5653 5652 5647 5642 5639 5636 5632 5629 5626 5623 5621 5619 5617 5615 5612 5608 5605 5602 5599 5595 5593 5590 5588 5584 5581 5577 5575 5572 5570 5568 5565 5563 5561 5559 5556 5554 5551 5548 5545 5542 5539 5537 5535 5533 5531 5529 5527 5525 5522 5520 5518 5515 5512 5511 5509 5507 5504
5693 5692 5690 5688 5687 5686 5685 5684 5682 5680 5678 5677 5675 5673 5671 5669 5666 5665 5665 5663 5660 5657 5655 5653 5650 5648 5645 5642 5639 5639 5636 5629 5625 5623 5619 5615 5612 5609 5607 5604 5602 5600 5598 5595 5591 5589 5586 5582 5580 5578 5575 5572 5569 5566 5563 5560 5558 5556 5554 5552 5550 5548 5546 5544 5541 5538 5535 5532 5529 5527 5525 5523 5521 5519 5517 5515 5513 5511 5508 5506 5504 5502 5501 5498 5496
5684 5683 5681 5679 5677 5675 5674 5674 5672 5670 5668 5667 5665 5663 5661 5658 5656 5654 5653 5652 5650 5646 5644 5642 5639 5635 5633 5630 5627 5626 5624 5618 5613 5611 5608 5603 5601 5599 5595 5593 5591 5588 5585 5582 5579 5576 5573 5569 5566 5564 5562 5559 5556 5553 5550 5547 5546 5544 5542 5540 5539 5537 5536 5534 5531 5528 5525 5522 5519 5516 5514 5513 5511 5510 5508 5506 5504 5501 5499 5497 5496 5494 5492 5490 5487
5675 5673 5671 5668 5666 5665 5663 5662 5661 5660 5658 5655 5654 5652 5650 5647 5644 5642 5641 5640 5639 5636 5633 5631 5629 5625 5621 5619 5616 5614 5614 5610 5603 5600 5598 5593 5589 5588 5585 5582 5581 5578 5575 5572 5568 5565 5561 5558 5553 5550 5548 5546 5542 5539 5536 5534 5532 5531 5529 5528 5527 5526 5525 5524 5521 5518 5516 5513 5510 5506 5504 5503 5502 5500 5499 5497 5495 5492 5490 5489 5487 5485 5483 5481 5479
5665 5663 5661 5658 5656 5654 5652 5650 5649 5648 5646 5645 5642 5640 5638 5636 5633 5631 5628 5627 5626 5624 5621 5619 5618 5615 5610 5607 5605 5601 5600 5599 5594 5589 5587 5583 5578 5575 5573 5571 5569 5566 5563 5560 5558 5554 5550 5546 5542 5538 5535 5533 5530 5527 5524 5521 5520 5518 5516 5515 5515 5514 5514 5513 5511 5509 5507 5504 5500 5496 5494 5493 5492 5491 5490 5488 5486 5484 5482 5480 5479 5477 5475 5472 5470
5656 5653 5651 5648 5645 5642 5640 5638 5637 5635 5634 5633 5631 5628 5625 5623 5621 5619 5616 5614 5612 5611 5609 5605 5605 5604 5600 5595 5593 5588 5585 5584 5582 5577 5574 5570 5566 5563 5561 5558 5555 5553 5551 5548 5545 5542 5538 5534 5531 5526 5523 5520 5518 5515 5512 5509 5508 5506 5504 5503 5503 5502 5501 5501 5500 5499 5497 5493 5489 5486 5485 5484 5483 5482 5481 5479 5477 5475 5473 5471 5470 5468 5466 5464 5463
5646 5643 5641 5638 5635 5632 5629 5626 5625 5623 5621 5619 5619 5617 5612 5609 5608 5606 5603 5601 5599 5597 5595 5592 5590 5590 5587 5582 5579 5575 5570 5568 5567 5564 5560 5556 5553 5549 5547 5545 5541 5538 5538 5535 5532 5529 5526 5522 5519 5515 5511 5508 5505 5502 5500 5498 5496 5495 5493 5492 5491 5490 5490 5490 5489 5488 5486 5483 5480 5478 5477 5476 5475 5474 5472 5470 5468 5466 5464 5462 5461 5460 5459 5457 5455
5636 5633 5631 5628 5624 5621 5618 5616 5613 5611 5609 5607 5606 5605 5601 5597 5595 5593 5590 5588 5586 5584 5582 5579 5576 5577 5576 5571 5566 5562 5557 5554 5552 5550 5546 5542 5539 5535 5532 5530 5527 5524 5523 5522 5518 5515 5512 5509 5506 5503 5499 5495 5493 5490 5487 5485 5484 5484 5483 5481 5480 5479 5478 5478 5477 5476 5475 5473 5471 5469 5468 5467 5466 5465 5464 5462 5460 5458 5456 5454 5453 5452 5451 5450 5448
5625 5623 5620 5617 5614 5611 5608 5606 5602 5599 5597 5595 5593 5592 5590 5586 5584 5581 5577 5575 5574 5572 5570 5567 5564 5564 5564 5561 5556 5550 5546 5542 5539 5536 5533 5529 5526 5523 5519 5516 5513 5510 5508 5508 5505 5501 5499 5496 5493 5490 5486 5483 5480 5477 5475 5473 5472 5472 5471 5470 5470 5468 5467 5467 5466 5466 5465 5463 5462 5461 5459 5458 5457 5455 5455 5454 5452 5450 5448 5447 5445 5444 5443 5442 5441
5615 5612 5609 5606 5603 5601 5598 5595 5592 5589 5586 5583 5581 5580 5578 5575 5573 5570 5566 5562 5560 5559 5558 5555 5552 5551 5550 5549 5546 5541 5535 5531 5528 5523 5519 5516 5514 5511 5507 5504 5501 5497 5495 5494 5492 5488 5486 5483 5480 5477 5474 5471 5468 5465 5463 5461 5461 5460 5459 5460 5460 5458 5457 5457 5456 5455 5455 5454 5452 5451 5450 5449 5448 5446 5445 5445 5444 5443 5441 5439 5438 5437 5436 5435 5435
5604 5601 5598 5595 5592 5590 5588 5585 5581 5578 5575 5572 5569 5567 5565 5562 5561 5558 5555 5551 5547 5545 5544 5542 5540 5538 5536 5535 5534 5531 5525 5520 5517 5512 5507 5503 5502 5499 5495 5492 5489 5485 5483 5482 5479 5476 5473 5471 5468 5465 5462 5459 5456 5454 5451 5450 5449 5449 5448 5449 5449 5447 5447 5446 5445 5445 5445 5444 5443 5442 5441 5440 5438 5437 5437 5436 5436 5435 5433 5432 5431 5430 5430 5429 5428
5593 5590 5587 5584 5581 5578 5576 5574 5571 5568 5564 5560 5557 5554 5551 5549 5547 5546 5543 5538 5534 5532 5531 5529 5527 5525 5523 5521 5520 5518 5514 5509 5504 5500 5495 5492 5490 5486 5483 5480 5477 5473 5471 5469 5466 5464 5461 5459 5456 5454 5451 5448 5445 5443 5441 5440 5439 5438 5438 5439 5438 5437 5437 5436 5435 5435 5435 5434 5434 5433 5431 5430 5429 5429 5429 5429 5428 5427 5426 5425 5424 5424 5423 5423 5422
5582 5579 5576 5573 5570 5567 5564 5562 5560 5558 5554 5550 5546 5544 5540 5536 5534 5533 5530 5525 5522 5520 5518 5516 5514 5511 5508 5508 5506 5504 5502 5498 5492 5487 5484 5481 5478 5475 5471 5468 5465 5462 5459 5457 5454 5452 5450 5447 5445 5443 5440 5437 5435 5433 5431 5430 5429 5429 5430 5429 5428 5427 5427 5427 5426 5426 5426 5425 5424 5423 5422 5422 5422 5423 5422 5422 5421 5420 5419 5418 5418 5417 5417 5416 5415
5570 5568 5565 5562 5559 5556 5553 5551 5549 5546 5544 5541 5537 5534 5530 5526 5523 5521 5518 5511 5508 5507 5506 5504 5501 5497 5494 5494 5492 5491 5490 5486 5479 5475 5473 5469 5466 5463 5460 5456 5454 5451 5448 5446 5444 5441 5439 5437 5435 5432 5430 5428 5426 5424 5423 5421 5421 5421 5421 5420 5419 5419 5419 5418 5417 5417 5417 5417 5416 5416 5416 5416 5416 5416 5415 5415 5414 5413 5413 5412 5412 5411 5411 5410 5409
5559 5557 5554 5551 5548 5545 5543 5540 5537 5535 5532 5530 5527 5524 5521 5516 5512 5510 5508 5501 5494 5492 5492 5491 5488 5483 5481 5480 5477 5475 5477 5475 5468 5463 5461 5457 5453 5451 5448 5445 5442 5440 5437 5435 5433 5431 5429 5427 5425 5423 5421 5419 5417 5416 5415 5414 5414 5414 5414 5412 5412 5412 5411 5411 5410 5410 5410 5410 5409 5409 5410 5410 5410 5409 5409 5408 5407 5407 5406 5406 5406 5405 5405 5404 5403
5548 5546 5543 5541 5537 5535 5532 5529 5526 5523 5520 5518 5515 5514 5511 5507 5501 5497 5496 5492 5485 5479 5477 5477 5475 5469 5467 5467 5464 5460 5460 5460 5456 5452 5449 5446 5442 5439 5436 5433 5431 5429 5426 5425 5423 5420 5418 5416 5415 5413 5412 5410 5410 5409 5408 5407 5407 5406 5406 5406 5405 5404 5404 5404 5403 5403 5403 5403 5403 5403 5404 5404 5403 5403 5402 5402 5402 5401 5401 5400 5400 5400 5399 5399 5398
5536 5534 5532 5529 5526 5523 5521 5518 5515 5512 5508 5504 5501 5499 5498 5498 5494 5487 5481 5478 5475 5470 5465 5462 5461 5456 5453 5452 5452 5449 5445 5443 5441 5439 5436 5434 5430 5427 5424 5421 5420 5418 5415 5414 5412 5410 5408 5406 5405 5404 5403 5403 5402 5402 5401 5401 5400 5399 5399 5399 5398 5398 5397 5397 5397 5396 5397 5397 5397 5397 5398 5397 5397 5397 5397 5396 5396 5395 5395 5395 5395 5394 5394 5393 5392
5524 5522 5520 5517 5514 5511 5508 5505 5503 5499 5496 5492 5488 5484 5481 5481 5483 5481 5474 5465 5461 5458 5454 5450 5447 5443 5439 5437 5437 5436 5433 5430 5427 5425 5423 5421 5418 5415 5412 5410 5408 5406 5404 5403 5402 5401 5399 5397 5397 5396 5396 5395 5396 5395 5395 5394 5393 5393 5393 5392 5392 5392 5392 5391 5391 5391 5391 5391 5391 5391 5391 5391 5391 5391 5391 5390 5390 5390 5390 5390 5389 5389 5388 5387 5385
5512 5509 5506 5503 5501 5498 5494 5491 5489 5485 5482 5478 5475 5471 5468 5464 5463 5466 5466 5460 5452 5446 5442 5437 5433 5430 5427 5424 5421 5420 5419 5417 5415 5412 5410 5408 5406 5403 5401 5399 5398 5396 5394 5393 5393 5391 5390 5389 5388 5388 5388 5388 5388 5388 5388 5387 5387 5387 5386 5386 5386 5386 5386 5386 5386 5386 5385 5385 5385 5385 5385 5385 5385 5385 5384 5384 5384 5384 5384 5384 5383 5382 5381 5380 5379
5498 5496 5492 5489 5486 5484 5480 5477 5474 5471 5468 5465 5461 5457 5454 5451 5446 5445 5446 5447 5444 5439 5433 5426 5420 5417 5415 5413 5409 5406 5405 5404 5402 5400 5398 5396 5394 5392 5391 5389 5388 5386 5384 5384 5383 5382 5381 5380 5380 5380 5380 5381 5381 5381 5381 5381 5380 5380 5380 5380 5380 5380 5380 5380 5380 5380 5380 5380 5380 5380 5380 5379 5379 5379 5379 5379 5379 5379 5378 5378 5377 5376 5375 5374 5373
5484 5482 5478 5474 5471 5469 5466 5462 5459 5456 5454 5451 5447 5443 5440 5437 5433 5429 5427 5426 5427 5426 5423 5417 5410 5405 5403 5401 5398 5394 5393 5392 5390 5388 5387 5385 5383 5381 5380 5379 5378 5376 5375 5375 5374 5373 5373 5372 5372 5372 5373 5373 5373 5373 5374 5374 5374 5374 5374 5374 5375 5375 5375 5375 5374 5374 5374 5374 5374 5374 5374 5374 5373 5373 5373 5373 5373 5372 5372 5372 5371 5370 5369 5368 5367
5471 5468 5465 5461 5457 5455 5452 5448 5445 5441 5438 5436 5433 5430 5426 5422 5419 5416 5413 5410 5408 5408 5407 5405 5400 5394 5391 5389 5386 5383 5382 5381 5379 5377 5376 5375 5373 5372 5371 5370 5369 5368 5367 5366 5366 5365 5365 5365 5365 5365 5366 5366 5366 5366 5367 5367 5367 5367 5368 5368 5368 5368 5368 5368 5368 5368 5368 5368 5368 5368 5368 5368 5368 5368 5368 5367 5367 5366 5366 5366 5365 5364 5363 5362 5361
5458 5456 5453 5449 5445 5442 5439 5435 5431 5427 5424 5421 5418 5415 5412 5409 5405 5401 5399 5397 5394 5392 5391 5390 5387 5384 5381 5378 5374 5372 5372 5371 5369 5367 5366 5365 5364 5363 5362 5361 5360 5360 5359 5359 5358 5358 5358 5358 5359 5359 5359 5359 5359 5359 5359 5360 5360 5360 5361 5361 5362 5362 5362 5362 5362 5363 5363 5362 5362 5362 5362 5362 5362 5362 5362 5361 5361 5360 5360 5359 5359 5358 5357 5355 5354
5446 5443 5440 5436 5432 5429 5426 5423 5419 5415 5410 5408 5404 5401 5398 5395 5392 5388 5385 5383 5382 5380 5378 5376 5374 5372 5371 5368 5364 5362 5362 5361 5359 5358 5357 5356 5355 5354 5354 5353 5353 5352 5352 5352 5352 5352 5352 5352 5352 5352 5352 5352 5352 5352 5352 5353 5353 5354 5355 5355 5356 5356 5356 5357 5357 5357 5357 5357 5357 5357 5358 5357 5357 5357 5356 5356 5355 5354 5354 5353 5352 5351 5350 5349 5347
5434 5431 5427 5423 5419 5416 5413 5409 5406 5402 5398 5395 5392 5388 5385 5382 5380 5377 5374 5371 5370 5368 5366 5365 5363 5361 5359 5357 5354 5353 5353 5352 5351 5349 5348 5347 5347 5346 5346 5345 5345 5345 5345 5345 5346 5346 5346 5346 5346 5346 5346 5346 5346 5346 5346 5347 5348 5349 5350 5350 5350 5351 5351 5351 5351 5351 5352 5352 5353 5353 5353 5352 5352 5351 5351 5350 5349 5349 5348 5347 5346 5344 5343 5342 5340
5423 5419 5415 5411 5407 5403 5400 5396 5393 5389 5386 5382 5379 5376 5373 5370 5368 5365 5363 5361 5359 5357 5355 5354 5353 5351 5349 5347 5345 5343 5343 5343 5342 5341 5340 5340 5339 5339 5339 5339 5339 5339 5339 5340 5340 5340 5340 5340 5340 5340 5340 5340 5340 5341 5341 5342 5343 5344 5345 5345 5345 5345 5346 5346 5346 5347 5347 5347 5347 5347 5347 5347 5346 5345 5345 5344 5343 5342 5341 5340 5339 5338 5336 5334 5332
5410 5407 5404 5400 5395 5391 5388 5384 5380 5376 5372 5369 5366 5364 5361 5358 5356 5354 5352 5350 5348 5347 5345 5344 5343 5341 5339 5337 5336 5335 5335 5335 5334 5333 5333 5333 5332 5332 5332 5332 5333 5333 5333 5334 5334 5334 5334 5334 5334 5334 5334 5335 5335 5336 5337 5338 5339 5339 5340 5340 5340 5341 5341 5341 5342 5342 5342 5342 5342 5342 5341 5341 5340 5339 5338 5337 5337 5336 5335 5334 5332 5331 5329 5327 5325
5398 5395 5392 5387 5383 5379 5375 5371 5367 5363 5360 5356 5353 5351 5348 5346 5344 5342 5340 5339 5337 5336 5335 5335 5333 5332 5330 5329 5328 5327 5327 5327 5326 5326 5326 5326 5326 5326 5326 5327 5327 5328 5328 5328 5328 5328 5328 5328 5328 5329 5329 5330 5331 5332 5333 5334 5334 5335 5335 5335 5336 5336 5336 5336 5336 5336 5336 5336 5336 5336 5335 5335 5334 5333 5332 5331 5330 5329 5328 5327 5325 5324 5322 5320 5317
5386 5382 5378 5374 5370 5366 5362 5358 5354 5350 5347 5344 5341 5339 5336 5335 5333 5331 5329 5328 5327 5325 5325 5325 5324 5323 5322 5321 5320 5319 5319 5320 5320 5320 5320 5320 5320 5321 5321 5322 5322 5323 5322 5322 5322 5322 5322 5323 5323 5324 5325 5326 5327 5328 5329 5329 5330 5330 5330 5330 5331 5331 5331 5331 5331 5331 5331 5330 5330 5330 5329 5328 5328 5327 5326 5325 5324 5323 5321 5320 5318 5317 5315 5312 5310
5373 5369 5365 5361 5356 5352 5348 5343 5340 5337 5334 5332 5329 5327 5325 5323 5321 5320 5319 5318 5317 5316 5315 5315 5315 5314 5314 5313 5312 5312 5313 5313 5314 5315 5315 5315 5316 5316 5316 5317 5317 5317 5317 5317 5317 5317 5317 5318 5319 5320 5321 5322 5322 5323 5324 5324 5325 5325 5325 5325 5325 5325 5325 5325 5325 5325 5325 5325 5324 5324 5323 5322 5321 5320 5319 5318 5317 5316 5314 5313 5311 5310 5307 5305 5302
5360 5356 5351 5347 5342 5338 5334 5330 5326 5324 5321 5319 5317 5316 5314 5311 5310 5310 5309 5308 5308 5307 5306 5306 5306 5306 5305 5305 5305 5305 5306 5307 5308 5309 5310 5310 5311 5311 5312 5312 5312 5312 5312 5312 5312 5312 5313 5313 5314 5315 5316 5317 5318 5319 5319 5319 5320 5320 5320 5320 5320 5320 5320 5320 5320 5320 5319 5319 5318 5318 5317 5316 5315 5314 5312 5311 5310 5309 5307 5306 5304 5302 5299 5297 5294
5348 5343 5338 5334 5329 5325 5322 5318 5315 5312 5310 5308 5306 5305 5303 5301 5300 5300 5299 5299 5298 5298 5298 5298 5298 5298 5298 5298 5298 5299 5301 5302 5302 5303 5304 5305 5306 5306 5306 5307 5307 5306 5307 5307 5307 5308 5308 5309 5310 5311 5312 5313 5314 5314 5315 5315 5315 5315 5315 5315 5315 5314 5314 5314 5314 5313 5313 5312 5312 5311 5310 5309 5308 5307 5305 5304 5303 5302 5300 5299 5297 5294 5292 5289 5286
5337 5331 5326 5321 5317 5313 5310 5307 5304 5302 5300 5298 5296 5295 5294 5292 5291 5291 5291 5290 5289 5289 5290 5290 5290 5290 5291 5291 5292 5294 5295 5296 5297 5298 5298 5299 5301 5301 5301 5301 5301 5301 5302 5302 5303 5303 5304 5305 5306 5307 5308 5308 5309 5309 5310 5310 5310 5310 5310 5309 5309 5309 5308 5308 5307 5307 5306 5306 5305 5304 5303 5302 5301 5300 5298 5298 5296 5295 5294 5292 5290 5287 5284 5281 5277
5324 5319 5314 5310 5306 5303 5300 5297 5295 5292 5291 5289 5287 5286 5285 5284 5283 5282 5282 5282 5281 5281 5282 5282 5283 5283 5284 5285 5286 5288 5289 5290 5291 5292 5293 5295 5295 5296 5296 5296 5297 5297 5297 5298 5298 5299 5300 5300 5301 5302 5303 5303 5304 5304 5304 5305 5304 5304 5304 5303 5303 5302 5302 5301 5301 5300 5300 5299 5298 5297 5296 5295 5294 5293 5292 5291 5290 5288 5287 5285 5282 5279 5276 5273 5269
5312 5308 5304 5300 5297 5294 5291 5288 5286 5284 5282 5280 5279 5278 5276 5275 5275 5275 5275 5274 5274 5275 5275 5275 5276 5277 5278 5279 5281 5282 5284 5285 5286 5287 5288 5290 5290 5291 5291 5291 5292 5292 5293 5293 5294 5294 5295 5296 5296 5297 5298 5298 5298 5299 5299 5299 5298 5298 5297 5297 5297 5296 5296 5295 5295 5294 5293 5292 5291 5290 5290 5289 5288 5287 5286 5285 5283 5281 5279 5277 5274 5271 5268 5265 5261
5302 5298 5295 5291 5288 5285 5282 5280 5277 5275 5274 5273 5271 5270 5269 5268 5268 5268 5268 5267 5268 5268 5268 5269 5270 5271 5272 5274 5276 5277 5278 5279 5281 5282 5283 5284 5285 5286 5286 5287 5287 5288 5288 5288 5289 5290 5290 5291 5291 5292 5292 5292 5293 5293 5293 5293 5292 5292 5292 5291 5291 5290 5290 5289 5288 5287 5286 5286 5285 5284 5283 5282 5281 5280 5279 5277 5276 5274 5271 5269 5266 5263 5260 5257 5253
5294 5290 5287 5283 5280 5277 5274 5272 5270 5268 5267 5266 5264 5264 5263 5262 5262 5261 5261 5261 5262 5262 5262 5263 5264 5266 5268 5269 5270 5272 5273 5274 5275 5277 5278 5279 5280 5281 5282 5282 5282 5283 5283 5283 5284 5285 5285 5286 5286 5286 5287 5287 5287 5287 5287 5287 5286 5286 5286 5285 5284 5284 5283 5282 5282 5281 5280 5279 5278 5277 5277 5276 5274 5273 5272 5270 5268 5266 5264 5261 5258 5255 5251 5248 5244